Location: Newark
(43.5288°N, 5.4471°E)
Time: 04:47:27
(UTC+00:00)

Envisat - Visible Passes

Search period start: 18 August 2019 00:00
Search period end: 28 August 2019 00:00
Orbit: 764 x 766 km, 98.1° (Epoch: 17 August)

Date Brightness Start Highest point End Pass type
(mag) Time Alt. Az. Time Alt. Az. Time Alt. Az.
19 Aug 5.9 19:13:50 10° SW 19:16:55 16° W 19:20:00 10° NW visible
22 Aug 5.7 19:01:50 10° SW 19:05:32 20° W 19:09:16 10° NW visible
24 Aug 6.2 19:29:49 10° WSW 19:31:22 11° W 19:32:56 10° WNW visible
25 Aug 5.5 18:50:02 10° SSW 18:54:11 25° W 18:58:22 10° NW visible
27 Aug 6.0 19:17:12 10° WSW 19:19:59 15° W 19:22:45 10° NW visible
